Location: Unspecified
(0.0000°N, 0.0000°E)
Time: 14:33:49
(UTC+00:00)

Vanguard 2 Rocket - All Passes

Search period start: 28 November 2014 00:00
Search period end: 08 December 2014 00:00
Orbit: 553 x 3335 km, 32.9° (Epoch: 27 November)

Date Brightness Start Highest point End Pass type
(mag) Time Alt. Az. Time Alt. Az. Time Alt. Az.
28 Nov - 01:20:06 10° W 01:23:08 17° SW 01:25:48 10° S night (unlit)
28 Nov - 08:08:09 10° S 08:14:00 16° SE 08:21:37 10° ESE daylight
28 Nov - 10:18:02 10° SW 10:30:11 57° SE 10:49:01 10° ENE daylight
28 Nov - 12:32:20 10° WSW 12:48:15 65° NW 13:08:36 10° NE daylight
28 Nov - 14:53:05 10° W 15:09:06 30° NNW 15:24:34 10° NNE daylight
28 Nov - 17:23:18 10° NW 17:32:09 15° N 17:39:40 10° NNE daylight
28 Nov - 19:48:00 10° NNW 19:53:55 14° N 19:58:38 10° NE visible
28 Nov - 22:03:31 10° NW 22:11:24 32° NNE 22:16:24 10° E visible
29 Nov - 00:19:38 10° WNW 00:25:04 38° SW 00:28:59 10° SSE night (unlit)
29 Nov - 09:20:11 10° SSW 09:30:15 40° SE 09:46:02 10° ENE daylight
29 Nov - 11:32:54 10° WSW 11:47:06 81° NW 12:07:41 10° NE daylight
29 Nov - 13:50:48 10° W 14:07:03 38° NNW 14:24:48 10° NE daylight
29 Nov - 16:17:43 10° NW 16:29:49 18° NNW 16:40:24 10° NNE daylight
29 Nov - 18:46:03 10° NNW 18:52:55 14° N 18:58:31 10° NNE visible
29 Nov - 21:03:31 10° NNW 21:12:00 25° NNE 21:17:37 10° ENE visible
29 Nov - 23:19:30 10° WNW 23:26:57 80° SW 23:31:33 10° SE night (unlit)
30 Nov - 08:23:00 10° SSW 08:30:43 26° SE 08:42:07 10° E daylight
30 Nov - 10:34:10 10° SW 10:46:28 79° SE 11:06:07 10° ENE daylight
30 Nov - 12:49:49 10° W 13:05:16 48° NNW 13:24:34 10° NE daylight
30 Nov - 15:13:05 10° WNW 15:27:19 23° NNW 15:40:47 10° NNE daylight
30 Nov - 17:42:39 10° NNW 17:51:13 15° N 17:58:20 10° NNE daylight
30 Nov - 20:03:02 10° NNW 20:12:03 21° NNE 20:18:19 10° ENE visible
30 Nov - 22:19:20 10° NW 22:28:27 61° NNE 22:33:43 10° ESE visible
01 Dec - 00:37:49 10° W 00:41:20 17° SW 00:44:12 10° S night (unlit)
01 Dec - 07:27:04 10° S 07:31:23 14° SE 07:36:46 10° ESE daylight
01 Dec - 09:36:02 10° SW 09:46:27 58° SE 10:03:54 10° ENE daylight
01 Dec - 11:49:51 10° WSW 12:03:51 60° NNW 12:23:50 10° NE daylight
01 Dec - 14:09:52 10° WNW 14:24:54 29° NNW 14:40:48 10° NNE daylight
01 Dec - 16:38:12 10° NW 16:48:53 16° N 16:58:07 10° NNE daylight
01 Dec - 19:01:54 10° NNW 19:11:27 19° NNE 19:18:29 10° NE visible
01 Dec - 21:19:01 10° NW 21:29:24 42° NNE 21:35:29 10° E visible
01 Dec - 23:36:37 10° WNW 23:43:15 37° SW 23:47:37 10° SSE night (unlit)
02 Dec - 08:38:26 10° SSW 08:47:00 39° SE 09:01:00 10° ENE daylight
02 Dec - 10:50:43 10° WSW 11:02:59 76° NW 11:22:37 10° NE daylight
02 Dec - 13:08:03 10° W 13:22:45 36° NNW 13:40:28 10° NE daylight
02 Dec - 15:33:37 10° NW 15:46:10 19° NNW 15:57:46 10° NNE daylight
02 Dec - 17:59:55 10° NNW 18:10:07 18° N 18:18:06 10° NE visible
02 Dec - 20:18:25 10° NW 20:29:47 33° NNE 20:36:48 10° E visible
02 Dec - 22:35:49 10° WNW 22:45:02 71° SW 22:50:19 10° SE visible
03 Dec - 07:41:30 10° S 07:47:55 24° SE 07:57:22 10° E daylight
03 Dec - 09:52:13 10° SW 10:02:44 83° SE 10:20:55 10° ENE daylight
03 Dec - 12:07:26 10° W 12:21:03 44° NNW 12:39:45 10° NE daylight
03 Dec - 14:29:47 10° WNW 14:43:23 22° NNW 14:57:16 10° NNE daylight
03 Dec - 16:57:04 10° NNW 17:08:04 17° N 17:17:14 10° NE daylight
03 Dec - 19:17:27 10° NNW 19:29:32 27° NNE 19:37:33 10° ENE visible
03 Dec - 21:35:01 10° NW 21:46:21 73° NNE 21:52:34 10° ESE visible
03 Dec - 23:54:57 10° W 23:59:24 18° SW 00:02:50 10° S night (unlit)
04 Dec - 06:46:23 10° SSE 06:48:59 12° SE 06:51:59 10° ESE daylight
04 Dec - 08:54:16 10° SW 09:03:08 60° SE 09:18:45 10° ENE daylight
04 Dec - 11:07:46 10° WSW 11:19:52 55° NNW 11:38:41 10° NE daylight
04 Dec - 13:27:10 10° WNW 13:40:50 27° NNW 13:56:33 10° NNE daylight
04 Dec - 15:53:35 10° NW 16:05:25 18° N 16:16:02 10° NE daylight
04 Dec - 18:16:05 10° NNW 18:28:37 23° NNE 18:37:38 10° ENE visible
04 Dec - 20:34:07 10° NW 20:47:05 52° NNE 20:54:23 10° ESE visible
04 Dec - 22:53:05 10° WNW 23:01:14 37° SW 23:06:18 10° SSE visible
05 Dec - 07:56:51 10° SSW 08:04:05 38° SE 08:16:08 10° ENE daylight
05 Dec - 10:08:50 10° WSW 10:19:19 71° NNW 10:37:19 10° NE daylight
05 Dec - 12:25:46 10° W 12:38:45 32° NNW 12:55:38 10° NE daylight
05 Dec - 14:50:00 10° NW 15:02:26 19° N 15:14:40 10° NNE daylight
05 Dec - 17:14:16 10° NNW 17:26:59 21° N 17:36:57 10° NE daylight
05 Dec - 19:33:04 10° NW 19:47:12 40° NNE 19:55:41 10° E visible
05 Dec - 21:51:37 10° WNW 22:02:50 66° SW 22:09:02 10° SE visible
06 Dec - 07:00:09 10° S 07:05:24 21° SE 07:12:56 10° E daylight
06 Dec - 09:10:31 10° SW 09:19:26 88° SE 09:35:39 10° NE daylight
06 Dec - 11:25:27 10° W 11:37:14 39° NNW 11:54:32 10° NE daylight
06 Dec - 13:46:59 10° NW 13:59:31 21° NNW 14:13:14 10° NNE daylight
06 Dec - 16:12:00 10° NNW 16:24:39 19° N 16:35:31 10° NE daylight
06 Dec - 18:31:51 10° NW 18:46:39 33° NNE 18:56:23 10° E visible
06 Dec - 20:50:15 10° NW 21:03:55 83° NE 21:11:17 10° ESE visible
06 Dec - 23:11:31 10° W 23:17:20 20° SW 23:21:33 10° S night (unlit)
07 Dec - 08:12:43 10° SW 08:20:12 61° SE 08:33:45 10° ENE daylight
07 Dec - 10:26:00 10° W 10:36:20 49° NNW 10:53:18 10° NE daylight
07 Dec - 12:44:56 10° WNW 12:57:00 24° NNW 13:11:48 10° NNE daylight
07 Dec - 15:09:27 10° NW 15:21:46 19° N 15:33:28 10° NE daylight
07 Dec - 17:30:29 10° NNW 17:45:25 28° NNE 17:56:17 10° ENE daylight
07 Dec - 19:48:55 10° NW 20:04:23 61° NNE 20:13:04 10° ESE visible
07 Dec - 22:09:02 10° WNW 22:18:58 38° SW 22:24:57 10° SSE visible
